Location: Unspecified
(0.0000°N, 0.0000°E)
Time: 13:40:41
(UTC+00:00)

AO-7 - Pass Details

Date: 15 December 2017
Orbit: 1439 x 1459 km, 101.7° (Epoch: 22 April)

Event Time Altitude Azimuth Distance (km) Brightness Sun altitude
Exits shadow 04:12:29 37° 282° (WNW) 2,121 ? -23.4°
Drops below altitude 10° 04:19:41 10° 222° (SW) 3,578 ? -21.8°
Sets 04:22:45 0° 214° (SW) 4,556 ? -21.1°
